Location: Weldons
(34.3450°N, 119.2971°W)
Time: 20:23:31
(UTC+00:00)

CZ-2C R/B - Pass Details

Date: 05 August 2025
Orbit: 664 x 773 km, 98.4° (Epoch: 15 December)

Event Time Altitude Azimuth Distance (km) Brightness Sun altitude
Rises 12:07:29 0° 8° (N) 3,253 6.3 -12.7°
Reaches altitude 10° 12:09:51 10° 4° (N) 2,318 5.5 -12.2°
Maximum altitude 12:14:52 59° 286° (WNW) 876 2.6 -11.3°
Drops below altitude 10° 12:19:46 10° 208° (SSW) 2,261 4.4 -10.5°
Enters shadow 12:20:16 - 207° (SSW) 2,454 4.6 -10.4°
